This is the latest recevied weather packets stored in our database for station/object VR2MW-X. If no packets are shown the sender has not sent any weather packets the latest 10 day(s).
| Time | Temp. | Humidity | Pressure | Rain* | Wind** | Luminosity | Snow |
|---|---|---|---|---|---|---|---|
| 1778132047 | 30° C | 64% | 1011.1 hPa | - | - | - | - |
| 1778131436 | 30° C | 63% | 1011.2 hPa | - | - | - | - |
| 1778130826 | 30° C | 63% | 1011.1 hPa | - | - | - | - |
| 1778130216 | 30° C | 62% | 1011.3 hPa | - | - | - | - |
| 1778129605 | 30° C | 62% | 1011.3 hPa | - | - | - | - |
| 1778128995 | 30° C | 61% | 1011.6 hPa | - | - | - | - |
| 1778128384 | 30° C | 61% | 1011.6 hPa | - | - | - | - |
| 1778127774 | 30° C | 65% | 1011.7 hPa | - | - | - | - |
| 1778127163 | 30° C | 62% | 1011.8 hPa | - | - | - | - |
| 1778126553 | 30° C | 64% | 1012 hPa | - | - | - | - |
| 1778125942 | 30° C | 64% | 1012.1 hPa | - | - | - | - |
| 1778124721 | 30° C | 65% | 1012.5 hPa | - | - | - | - |
| 1778124111 | 28.89° C | 66% | 1012.5 hPa | - | - | - | - |
| 1778123501 | 28.89° C | 71% | 1012.6 hPa | - | - | - | - |
| 1778122890 | 27.78° C | 68% | 1012.5 hPa | - | - | - | - |
| 1778122279 | 27.78° C | 70% | 1012.6 hPa | - | - | - | - |
| 1778121669 | 27.78° C | 73% | 1012.7 hPa | - | - | - | - |
| 1778121059 | 27.22° C | 74% | 1012.7 hPa | - | - | - | - |
| 1778120448 | 27.78° C | 74% | 1012.7 hPa | - | - | - | - |
| 1778119838 | 27.22° C | 75% | 1012.7 hPa | - | - | - | - |
| 1778119228 | 27.22° C | 75% | 1012.7 hPa | - | - | - | - |
| 1778118617 | 27.22° C | 77% | 1012.7 hPa | - | - | - | - |
| 1778118003 | 27.22° C | 75% | 1012.8 hPa | - | - | - | - |
| 1778117392 | 27.22° C | 74% | 1013 hPa | - | - | - | - |
| 1778116782 | 27.22° C | 78% | 1012.8 hPa | - | - | - | - |
* Rain since midnight (hover to see other rain measurements)
** Current wind speed in m/s (hover to see current wind gust speed)